DLH137 EDDS-EDDF

Flight info

Callsign DLH137
Flight time 0h 28m
Altitude 18000
Route ETASA4B ETASA T163 SPESA SPESA5B
Aircraft A320/M-SDE2E3FGIJ1LORWXYZ/HB1

Departure

Time 2026-05-05 17:04
Airport Stuttgart Airport (EDDS)

Arrival

Time 2026-05-05 17:33
Airport Frankfurt Main Airport (EDDF)
Time Latitude Longitude Altitude Speed Heading
2026-05-05 16:18 48.68883 9.19359 1285 ft 0 kts 345°
2026-05-05 16:53 48.68875 9.19362 1285 ft 4 kts 344°
2026-05-05 16:53 48.68850 9.19375 1290 ft 4 kts 336°
2026-05-05 16:54 48.68827 9.19395 1291 ft 4 kts 317°
2026-05-05 16:54 48.68814 9.19424 1289 ft 4 kts 263°
2026-05-05 16:54 48.68814 9.19431 1290 ft 0 kts 254°
2026-05-05 16:57 48.68812 9.19420 1289 ft 4 kts 254°
2026-05-05 16:57 48.68798 9.19342 1286 ft 12 kts 254°
2026-05-05 16:57 48.68770 9.19194 1289 ft 15 kts 252°
2026-05-05 16:57 48.68693 9.19157 1288 ft 12 kts 165°
2026-05-05 16:58 48.68645 9.19229 1290 ft 10 kts 96°
2026-05-05 16:58 48.68665 9.19367 1288 ft 17 kts 74°
2026-05-05 16:58 48.68699 9.19542 1285 ft 18 kts 74°
2026-05-05 16:58 48.68735 9.19733 1288 ft 20 kts 74°
2026-05-05 16:59 48.68788 9.19927 1290 ft 21 kts 52°
2026-05-05 16:59 48.68851 9.20112 1289 ft 19 kts 73°
2026-05-05 16:59 48.68891 9.20315 1288 ft 21 kts 74°
2026-05-05 16:59 48.68931 9.20528 1285 ft 22 kts 74°
2026-05-05 17:00 48.68974 9.20754 1285 ft 23 kts 74°
2026-05-05 17:00 48.69018 9.20989 1285 ft 24 kts 74°
2026-05-05 17:00 48.69065 9.21233 1287 ft 25 kts 74°
2026-05-05 17:00 48.69113 9.21486 1285 ft 25 kts 73°
2026-05-05 17:01 48.69162 9.21748 1286 ft 26 kts 75°
2026-05-05 17:01 48.69213 9.22015 1287 ft 27 kts 73°
2026-05-05 17:01 48.69264 9.22286 1288 ft 27 kts 74°
2026-05-05 17:01 48.69317 9.22561 1285 ft 27 kts 74°
2026-05-05 17:02 48.69369 9.22838 1286 ft 28 kts 74°
2026-05-05 17:02 48.69421 9.23114 1285 ft 28 kts 74°
2026-05-05 17:02 48.69475 9.23396 1286 ft 28 kts 74°
2026-05-05 17:02 48.69529 9.23676 1288 ft 27 kts 74°
2026-05-05 17:03 48.69580 9.23953 1286 ft 26 kts 73°
2026-05-05 17:03 48.69592 9.24209 1290 ft 25 kts 114°
2026-05-05 17:03 48.69447 9.24324 1287 ft 25 kts 182°
2026-05-05 17:03 48.69360 9.24160 1289 ft 21 kts 253°
2026-05-05 17:04 48.69292 9.23799 1291 ft 68 kts 254°
2026-05-05 17:04 48.69098 9.22772 1288 ft 132 kts 253°
2026-05-05 17:04 48.68801 9.21194 1507 ft 162 kts 254°
2026-05-05 17:04 48.68517 9.19553 2247 ft 161 kts 254°
2026-05-05 17:05 48.68219 9.17907 2822 ft 171 kts 253°
2026-05-05 17:05 48.67875 9.16081 3210 ft 190 kts 252°
2026-05-05 17:05 48.67467 9.14074 3576 ft 209 kts 251°
2026-05-05 17:05 48.67032 9.11823 3996 ft 231 kts 259°
2026-05-05 17:06 48.67255 9.09427 4958 ft 239 kts 293°
2026-05-05 17:06 48.68319 9.07420 5879 ft 248 kts 309°
2026-05-05 17:06 48.69886 9.06226 6712 ft 268 kts 348°
2026-05-05 17:06 48.71835 9.06416 7283 ft 292 kts
2026-05-05 17:07 48.73859 9.06960 8109 ft 299 kts
2026-05-05 17:07 48.75927 9.07479 8970 ft 304 kts
2026-05-05 17:07 48.78029 9.07989 9862 ft 308 kts
2026-05-05 17:07 48.80177 9.08489 10458 ft 323 kts
2026-05-05 17:08 48.82481 9.08998 10839 ft 343 kts
2026-05-05 17:08 48.84872 9.09537 11550 ft 351 kts
2026-05-05 17:08 48.87300 9.10105 12363 ft 356 kts
2026-05-05 17:08 48.89762 9.10695 13175 ft 360 kts
2026-05-05 17:09 48.92247 9.11298 13931 ft 364 kts
2026-05-05 17:09 48.94761 9.11917 14649 ft 368 kts
2026-05-05 17:09 48.97293 9.12543 15405 ft 370 kts
2026-05-05 17:09 48.99847 9.13175 16129 ft 373 kts
2026-05-05 17:10 49.02418 9.13811 16832 ft 377 kts
2026-05-05 17:10 49.05020 9.14453 17507 ft 381 kts
2026-05-05 17:10 49.07652 9.15102 17774 ft 383 kts
2026-05-05 17:10 49.10284 9.15753 17834 ft 383 kts
2026-05-05 17:11 49.12914 9.16404 17832 ft 383 kts
2026-05-05 17:11 49.15535 9.17055 17756 ft 379 kts
2026-05-05 17:11 49.18113 9.17696 17487 ft 371 kts
2026-05-05 17:11 49.20631 9.18331 17221 ft 363 kts
2026-05-05 17:12 49.23064 9.18950 16962 ft 356 kts
2026-05-05 17:12 49.25484 9.19554 16702 ft 349 kts
2026-05-05 17:12 49.27863 9.20143 16459 ft 344 kts
2026-05-05 17:12 49.30208 9.20724 16191 ft 339 kts
2026-05-05 17:13 49.32521 9.21296 15937 ft 336 kts
2026-05-05 17:13 49.34822 9.21869 15681 ft 334 kts
2026-05-05 17:13 49.37111 9.22439 15432 ft 333 kts
2026-05-05 17:13 49.39391 9.23008 15191 ft 331 kts
2026-05-05 17:14 49.41660 9.23579 14940 ft 329 kts
2026-05-05 17:14 49.43918 9.24148 14700 ft 328 kts
2026-05-05 17:14 49.46162 9.24712 14459 ft 327 kts
2026-05-05 17:14 49.48407 9.25270 14219 ft 326 kts
2026-05-05 17:15 49.50637 9.25826 13978 ft 324 kts
2026-05-05 17:15 49.52860 9.26383 13742 ft 323 kts
2026-05-05 17:15 49.55077 9.26940 13489 ft 322 kts
2026-05-05 17:15 49.57280 9.27495 13224 ft 321 kts
2026-05-05 17:16 49.59480 9.28052 12958 ft 319 kts
2026-05-05 17:16 49.61668 9.28608 12698 ft 319 kts
2026-05-05 17:16 49.63850 9.29163 12440 ft 317 kts
2026-05-05 17:16 49.66027 9.29715 12181 ft 316 kts
2026-05-05 17:17 49.68193 9.30260 11929 ft 315 kts
2026-05-05 17:17 49.70347 9.30799 11675 ft 314 kts
2026-05-05 17:17 49.72470 9.31331 11426 ft 312 kts
2026-05-05 17:17 49.74611 9.31465 11178 ft 306 kts 349°
2026-05-05 17:18 49.76691 9.30810 10936 ft 305 kts 345°
2026-05-05 17:18 49.78749 9.30044 10682 ft 304 kts 344°
2026-05-05 17:18 49.80803 9.29278 10435 ft 303 kts 344°
2026-05-05 17:18 49.82843 9.28510 10190 ft 301 kts 345°
2026-05-05 17:19 49.84873 9.27688 9955 ft 302 kts 344°
2026-05-05 17:19 49.86898 9.26849 9818 ft 301 kts 344°
2026-05-05 17:19 49.88923 9.26004 9826 ft 301 kts 344°
2026-05-05 17:19 49.90944 9.25159 9828 ft 301 kts 344°
2026-05-05 17:20 49.92969 9.24314 9829 ft 301 kts 344°
2026-05-05 17:20 49.94991 9.23475 9827 ft 301 kts 344°
2026-05-05 17:20 49.96979 9.22670 9823 ft 288 kts 348°
2026-05-05 17:20 49.98909 9.22699 9823 ft 273 kts 16°
2026-05-05 17:21 50.00555 9.24041 9829 ft 267 kts 40°
2026-05-05 17:21 50.01962 9.25912 9827 ft 266 kts 43°
2026-05-05 17:21 50.03331 9.27839 9827 ft 266 kts 43°
2026-05-05 17:22 50.06719 9.29847 9828 ft 268 kts
2026-05-05 17:22 50.08576 9.30056 9828 ft 268 kts
2026-05-05 17:22 50.10441 9.30236 9826 ft 269 kts
2026-05-05 17:22 50.12306 9.30419 9616 ft 267 kts
2026-05-05 17:23 50.14155 9.30540 9295 ft 265 kts 354°
2026-05-05 17:23 50.15881 9.29686 8992 ft 261 kts 325°
2026-05-05 17:23 50.17096 9.27677 8655 ft 254 kts 295°
2026-05-05 17:23 50.17734 9.25129 8302 ft 252 kts 285°
2026-05-05 17:24 50.18250 9.22519 7965 ft 251 kts 284°
2026-05-05 17:24 50.18749 9.19917 7669 ft 250 kts 284°
2026-05-05 17:24 50.19244 9.17335 7422 ft 247 kts 284°
2026-05-05 17:24 50.19469 9.14751 7108 ft 239 kts 254°
2026-05-05 17:25 50.18943 9.12296 6690 ft 240 kts 250°
2026-05-05 17:25 50.18597 9.10644 6344 ft 244 kts 249°
2026-05-05 17:25 50.17702 9.07338 5700 ft 245 kts 234°
2026-05-05 17:25 50.16797 9.05127 5437 ft 239 kts 244°
2026-05-05 17:26 50.16204 9.02732 5194 ft 234 kts 249°
2026-05-05 17:26 50.15674 9.00362 5027 ft 229 kts 249°
2026-05-05 17:26 50.15134 8.98026 4994 ft 230 kts 249°
2026-05-05 17:26 50.14594 8.95715 4998 ft 230 kts 249°
2026-05-05 17:27 50.14045 8.93375 4996 ft 229 kts 248°
2026-05-05 17:27 50.13496 8.91034 4998 ft 231 kts 248°
2026-05-05 17:27 50.12948 8.88697 4996 ft 227 kts 248°
2026-05-05 17:27 50.12421 8.86455 4977 ft 214 kts 248°
2026-05-05 17:28 50.11914 8.84298 4769 ft 210 kts 249°
2026-05-05 17:28 50.11414 8.82177 4494 ft 209 kts 248°
2026-05-05 17:28 50.10917 8.80069 4200 ft 205 kts 249°
2026-05-05 17:28 50.10434 8.78023 3930 ft 196 kts 249°
2026-05-05 17:29 50.09978 8.76091 3633 ft 185 kts 249°
2026-05-05 17:29 50.09540 8.74240 3380 ft 180 kts 249°
2026-05-05 17:29 50.09114 8.72442 3139 ft 174 kts 250°
2026-05-05 17:29 50.08698 8.70684 2886 ft 172 kts 250°
2026-05-05 17:30 50.08287 8.68949 2630 ft 169 kts 250°
2026-05-05 17:30 50.07881 8.67238 2400 ft 168 kts 250°
2026-05-05 17:30 50.07477 8.65534 2161 ft 167 kts 250°
2026-05-05 17:30 50.07092 8.63915 1946 ft 151 kts 250°
2026-05-05 17:31 50.06748 8.62467 1728 ft 139 kts 250°
2026-05-05 17:31 50.06416 8.61072 1519 ft 136 kts 250°
2026-05-05 17:31 50.06086 8.59685 1328 ft 134 kts 250°
2026-05-05 17:31 50.05766 8.58341 1120 ft 135 kts 251°
2026-05-05 17:32 50.05449 8.56964 922 ft 135 kts 249°
2026-05-05 17:32 50.05122 8.55601 750 ft 135 kts 248°
2026-05-05 17:32 50.04786 8.54216 539 ft 136 kts 248°
2026-05-05 17:32 50.04458 8.52840 358 ft 131 kts 247°
2026-05-05 17:33 50.04214 8.51831 335 ft 50 kts 250°
2026-05-05 17:33 50.04062 8.51479 330 ft 28 kts 221°
2026-05-05 17:33 50.03975 8.51368 331 ft 5 kts 217°
2026-05-05 17:33 50.03970 8.51363 331 ft 0 kts 211°
2026-05-05 17:34 50.03954 8.51361 334 ft 7 kts 180°
2026-05-05 17:34 50.03909 8.51415 333 ft 12 kts 109°
2026-05-05 17:34 50.03925 8.51523 332 ft 8 kts 69°
2026-05-05 17:34 50.03955 8.51649 332 ft 17 kts 70°
2026-05-05 17:35 50.04004 8.51858 335 ft 21 kts 69°
2026-05-05 17:35 50.04050 8.52046 338 ft 16 kts 69°
2026-05-05 17:35 50.04083 8.52187 352 ft 17 kts 70°
2026-05-05 17:35 50.04136 8.52412 346 ft 21 kts 69°
2026-05-05 17:36 50.04166 8.52534 350 ft 16 kts 69°
2026-05-05 17:36 50.04204 8.52694 355 ft 21 kts 70°
2026-05-05 17:36 50.04263 8.52941 357 ft 25 kts 69°
2026-05-05 17:36 50.04319 8.53175 365 ft 20 kts 69°
2026-05-05 17:37 50.04355 8.53324 368 ft 11 kts 70°
2026-05-05 17:37 50.04388 8.53468 374 ft 16 kts 73°
2026-05-05 17:37 50.04408 8.53713 375 ft 27 kts 83°
2026-05-05 17:37 50.04427 8.53991 375 ft 25 kts 84°
2026-05-05 17:38 50.04443 8.54241 375 ft 21 kts 84°
2026-05-05 17:38 50.04452 8.54472 369 ft 22 kts 97°
2026-05-05 17:38 50.04384 8.54691 366 ft 23 kts 134°
2026-05-05 17:38 50.04253 8.54806 360 ft 21 kts 160°
2026-05-05 17:39 50.04138 8.54870 353 ft 12 kts 160°
2026-05-05 17:39 50.04094 8.54895 357 ft 0 kts 160°
2026-05-05 17:39 50.04056 8.54917 355 ft 15 kts 160°
2026-05-05 17:40 50.03941 8.54985 355 ft 18 kts 159°
2026-05-05 17:40 50.03850 8.55096 353 ft 16 kts 98°
2026-05-05 17:40 50.03878 8.55234 349 ft 15 kts 70°
2026-05-05 17:40 50.03927 8.55441 358 ft 23 kts 69°
2026-05-05 17:41 50.03982 8.55671 356 ft 21 kts 70°
2026-05-05 17:41 50.04029 8.55869 358 ft 17 kts 70°
2026-05-05 17:41 50.04064 8.56016 353 ft 14 kts 69°
2026-05-05 17:41 50.04105 8.56186 355 ft 21 kts 69°
2026-05-05 17:42 50.04161 8.56420 356 ft 22 kts 70°
2026-05-05 17:42 50.04206 8.56610 360 ft 15 kts 70°
2026-05-05 17:42 50.04219 8.56665 364 ft 0 kts 70°
2026-05-05 17:43 50.04220 8.56668 364 ft 2 kts 70°
2026-05-05 17:44 50.04236 8.56740 360 ft 15 kts 70°
2026-05-05 17:44 50.04312 8.56817 360 ft 11 kts 12°
2026-05-05 17:44 50.04384 8.56840 360 ft 15 kts
2026-05-05 17:44 50.04505 8.56873 359 ft 18 kts 13°
2026-05-05 17:45 50.04616 8.56914 356 ft 15 kts 15°
2026-05-05 17:45 50.04697 8.56965 364 ft 10 kts 24°
2026-05-05 17:45 50.04746 8.57000 364 ft 6 kts 24°
2026-05-05 17:45 50.04809 8.57043 358 ft 8 kts 15°
2026-05-05 17:46 50.04834 8.57007 358 ft 3 kts 297°
2026-05-05 17:46 50.04848 8.56963 360 ft 4 kts 295°
2026-05-05 17:46 50.04852 8.56948 359 ft 1 kts 295°
2026-05-05 17:46 50.04852 8.56946 359 ft 0 kts 295°